ALSAT 1B

Satellite information

Favourite Embed

Satellite Type and Status

PAYLOADIN ORBIT

Key statistics

Satellite ALSAT 1B at a glance.

Uptime

3151

Days in orbit

Revolutions

≈ 14.7

Per day

Orbit

SSO

Sun Synchronous Orbit

Inclination

97.8

Latest

Satellite identification and parameters

Extended collection of information and parameters for ALSAT 1B.

Object identification

Identified? True

Debris? False

Object name: ALSAT 1B

International designator: 2016-059C

Object number (NORAD): 41785

Object ID (CCSDS): 41785

Country: ALGERIA (ALG)

Current information (Y/N): Y

RCS size: MEDIUM

Orbital parameters

Period: 97.839 minutes

Inclination: 97.7901 deg

SMA: 7033.446 km

Apoapsis: 662.945 km

Periapsis: 647.676 km

RAAN: 153.7534 deg

Eccentricy: 0.0010855

Argument of periapsis: 75.6397 deg

Mean anomaly: 284.6015 deg

Mean motion: 14.71805985 rev/day

Mean motion (dot): 0.00000473 rev/day2

B* drag term: 0.000083166 1/REarth

Two-line elements (TLE)

Creation date: May 12, 2025, 10:56 p.m.

Reference frame: TEME

Reference center: EARTH

Epoch: May 12, 2025, 8:57 p.m. UTC

TLE line 0: 0 ALSAT 1B

TLE line 1: 1 41785U 16059C 25132.87337918 .00000473 00000-0 83166-4 0 9997

TLE line 2: 2 41785 97.7901 153.7534 0010855 75.6397 284.6015 14.71805985461683

Live tracking on map

Real-time ground track for satellite ALSAT 1B.

In-orbit conjunctions

There are no conjunctions computed for ALSAT 1B, at the moment. Check back to stay up to date, as we update our databases every day.

Go to all conjunctions

Associated space launch

ScatSat-1 is a microsatellite of 371 kg and a mission life of 5 years. It is tasked to provide weather forecasting, cyclone prediction, and tracking services to India. This launch will also carry 7 other satellites, the 117kg Alsat-2B, the 103kg Alsat-1B & the 7kg Alsat-1N earth observation satellites for Algerian Space Agency, the 44kg Pathfinder-1 earth imager for Blacksky, the 8kg CanX-7 deorbiter for UTIAS Space Flight Laboratory, the 10kg Pratham Ionospheric Tomographer for IIT Bombay and the 5.25kg PiSat earth imager for PES University.

ALSAT 1B was lifted into orbit during the mission ‘PSLV | SCATSat-1’, on board a PSLV space rocket.

The launch took place on Sept. 26, 2016, 3:42 a.m. from Satish Dhawan Space Centre First Launch Pad.

For more information about the launch, click the button.

Launch to space PSLV | SCATSat-1
PSLV | SCATSat-1

Agency: N/A

Status: Launch Successful

Launch date: Sept. 26, 2016, 3:42 a.m. UTC

Rocket: PSLV

Launch pad: Satish Dhawan Space Centre First Launch Pad

Location: Satish Dhawan Space Centre, India

...

Latest news about this satellite

There are no fresh news available about this satellite. Check back as we update our databases every day.


Newsletter sign-up

Weekly statistics, charts and insights to help you stay on top of the space industry.